| time (UTC) | temp F | wind direction | speed knots | gust knots | rain 1hr in | rain 24hr in | rain mn in | humidity % | barometer mb |
| 20260510161535 | 48 | 187 | 2.6 | 6.1 | 0.00 | 0.02 | 0.02 | 87 | 1020.8 |
| 20260510160037 | 49 | 201 | 1.7 | 6.1 | 0.00 | 0.02 | 0.02 | 87 | 1020.9 |
| 20260510154528 | 48 | 169 | 3.5 | 8.7 | 0.00 | 0.02 | 0.02 | 87 | 1021.2 |
| 20260510153031 | 49 | 138 | 2.6 | 7.0 | 0.00 | 0.02 | 0.02 | 86 | 1021.2 |
| 20260510151526 | 49 | 99 | 0.9 | 4.3 | 0.00 | 0.02 | 0.02 | 87 | 1021.1 |
| 20260510150022 | 49 | 157 | 0.9 | 5.2 | 0.00 | 0.02 | 0.02 | 89 | 1021.2 |
| 20260510144522 | 48 | 231 | 2.6 | 9.6 | 0.00 | 0.02 | 0.02 | 90 | 1021.3 |
| 20260510143012 | 48 | 244 | 1.7 | 11.3 | 0.00 | 0.02 | 0.02 | 90 | 1021.4 |
| 20260510141508 | 48 | 184 | 2.6 | 8.7 | 0.00 | 0.02 | 0.02 | 91 | 1021.5 |
| 20260510140007 | 47 | 128 | 0.9 | 6.1 | 0.00 | 0.02 | 0.02 | 91 | 1021.5 |
| 20260510134506 | 47 | 113 | 1.7 | 11.3 | 0.00 | 0.02 | 0.02 | 90 | 1021.6 |
| 20260510133001 | 47 | 262 | 1.7 | 7.8 | 0.00 | 0.02 | 0.02 | 91 | 1021.7 |
| 20260510131605 | 46 | 13 | 1.7 | 7.0 | 0.00 | 0.02 | 0.02 | 91 | 1021.5 |
| 20260510130100 | 46 | 141 | 0.9 | 5.2 | 0.00 | 0.02 | 0.02 | 92 | 1021.6 |
| 20260510124612 | 46 | 113 | 1.7 | 4.3 | 0.00 | 0.02 | 0.02 | 93 | 1021.6 |
| 20260510123059 | 45 | 155 | 1.7 | 7.8 | 0.00 | 0.02 | 0.02 | 93 | 1021.6 |
| 20260510121559 | 45 | 125 | 2.6 | 7.0 | 0.00 | 0.02 | 0.02 | 93 | 1021.9 |
| 20260510120057 | 45 | 131 | 3.5 | 7.8 | 0.00 | 0.02 | 0.02 | 93 | 1021.8 |
| 20260510114557 | 45 | 176 | 7.0 | 11.3 | 0.00 | 0.02 | 0.02 | 93 | 1021.7 |
| 20260510113101 | 45 | 165 | 5.2 | 11.3 | 0.00 | 0.02 | 0.02 | 92 | 1021.5 |
| 20260510111607 | 45 | 177 | 6.1 | 12.2 | 0.00 | 0.02 | 0.02 | 92 | 1021.6 |
| 20260510110055 | 45 | 167 | 6.1 | 12.2 | 0.00 | 0.02 | 0.02 | 91 | 1021.6 |
| 20260510104602 | 46 | 172 | 1.7 | 7.8 | 0.00 | 0.02 | 0.02 | 91 | 1021.6 |
| 20260510103047 | 46 | 105 | 2.6 | 8.7 | 0.00 | 0.02 | 0.02 | 91 | 1021.6 |
| 20260510101547 | 46 | 121 | 1.7 | 7.8 | 0.00 | 0.02 | 0.02 | 91 | 1021.6 |
| 20260510100046 | 46 | 144 | 4.3 | 8.7 | 0.00 | 0.02 | 0.02 | 90 | 1021.2 |
| 20260510094548 | 45 | 103 | 2.6 | 10.4 | 0.00 | 0.02 | 0.02 | 90 | 1021.1 |
| 20260510093044 | 45 | 267 | 0.0 | 6.1 | 0.00 | 0.02 | 0.02 | 90 | 1021.2 |
| 20260510091553 | 45 | 156 | 0.0 | 1.7 | 0.00 | 0.02 | 0.02 | 89 | 1021.4 |
| 20260510090050 | 46 | 200 | 1.7 | 5.2 | 0.00 | 0.02 | 0.02 | 89 | 1021.4 |
| 20260510084553 | 46 | 207 | 4.3 | 9.6 | 0.00 | 0.02 | 0.02 | 89 | 1021.3 |
| 20260510083038 | 46 | 129 | 2.6 | 6.1 | 0.00 | 0.02 | 0.02 | 91 | 1021.3 |
| 20260510081541 | 45 | 261 | 1.7 | 3.5 | 0.00 | 0.02 | 0.02 | 91 | 1021.5 |
| 20260510080037 | 45 | 243 | 0.9 | 4.3 | 0.00 | 0.02 | 0.02 | 92 | 1021.5 |
| 20260510074535 | 44 | 61 | 0.9 | 5.2 | 0.00 | 0.02 | 0.02 | 92 | 1021.2 |
| 20260510073038 | 44 | 215 | 2.6 | 7.8 | 0.00 | 0.02 | 0.02 | 92 | 1021.1 |
| 20260510071537 | 44 | 205 | 2.6 | 6.1 | 0.00 | 0.02 | 0.02 | 92 | 1021.0 |
| 20260510070037 | 44 | 269 | 0.9 | 4.3 | 0.00 | 0.02 | 0.02 | 93 | 1021.1 |
| 20260510064552 | 44 | 257 | 0.9 | 3.5 | 0.00 | 0.02 | 0.02 | 93 | 1021.0 |
| 20260510063037 | 44 | 239 | 0.9 | 4.3 | 0.00 | 0.02 | 0.02 | 93 | 1021.0 |
| 20260510061538 | 44 | 264 | 1.7 | 4.3 | 0.00 | 0.02 | 0.02 | 93 | 1021.0 |
| 20260510060032 | 43 | 259 | 0.9 | 3.5 | 0.00 | 0.02 | 0.02 | 93 | 1021.0 |
| 20260510054525 | 44 | 252 | 0.9 | 4.3 | 0.00 | 0.02 | 0.02 | 94 | 1020.9 |
| 20260510053021 | 44 | 241 | 0.9 | 5.2 | 0.00 | 0.02 | 0.02 | 94 | 1021.1 |
| 20260510051520 | 44 | 263 | 2.6 | 5.2 | 0.00 | 0.02 | 0.02 | 94 | 1021.3 |
| 20260510050018 | 44 | 222 | 0.9 | 6.1 | 0.01 | 0.02 | 0.02 | 94 | 1021.3 |
| 20260510044518 | 44 | 125 | 1.7 | 5.2 | 0.01 | 0.02 | 0.02 | 94 | 1021.4 |
| 20260510043016 | 43 | 219 | 0.9 | 4.3 | 0.01 | 0.02 | 0.02 | 94 | 1021.4 |
| 20260510041516 | 43 | 174 | 0.9 | 4.3 | 0.01 | 0.02 | 0.02 | 94 | 1021.5 |
| 20260510040015 | 44 | 174 | 1.7 | 3.5 | 0.01 | 0.02 | 0.01 | 93 | 1021.4 |
| 20260510034512 | 43 | 243 | 0.9 | 5.2 | 0.01 | 0.02 | 0.01 | 93 | 1021.5 |
| 20260510033013 | 43 | 167 | 1.7 | 4.3 | 0.01 | 0.02 | 0.01 | 93 | 1021.3 |
| 20260510031509 | 43 | 180 | 0.9 | 4.3 | 0.01 | 0.02 | 0.01 | 93 | 1021.3 |
| 20260510030006 | 44 | 217 | 0.9 | 5.2 | 0.00 | 0.01 | 0.00 | 93 | 1021.5 |
| 20260510024506 | 44 | 255 | 2.6 | 5.2 | 0.00 | 0.01 | 0.01 | 93 | 1021.4 |
| 20260510023005 | 44 | 257 | 2.6 | 7.0 | 0.00 | 0.01 | 0.01 | 93 | 1021.4 |
| 20260510021506 | 43 | 262 | 4.3 | 8.7 | 0.00 | 0.01 | 0.01 | 93 | 1021.5 |
| 20260510020003 | 43 | 264 | 3.5 | 8.7 | 0.00 | 0.01 | 0.01 | 93 | 1021.4 |
| 20260510014503 | 44 | 236 | 4.3 | 8.7 | 0.00 | 0.01 | 0.01 | 93 | 1021.4 |
| 20260510013001 | 44 | 243 | 4.3 | 7.8 | 0.00 | 0.01 | 0.01 | 92 | 1021.3 |
| 20260510011502 | 44 | 228 | 4.3 | 7.0 | 0.00 | 0.01 | 0.01 | 91 | 1021.4 |
| 20260510010100 | 46 | 207 | 3.5 | 8.7 | 0.00 | 0.01 | 0.01 | 89 | 1021.2 |
| 20260510004601 | 46 | 251 | 0.0 | 2.6 | 0.01 | 0.01 | 0.01 | 89 | 1021.2 |
| 20260510003100 | 46 | 258 | 0.0 | 3.5 | 0.01 | 0.01 | 0.01 | 89 | 1021.1 |
| 20260510001556 | 46 | 265 | 0.9 | 5.2 | 0.01 | 0.01 | 0.01 | 88 | 1021.1 |
| 20260509234604 | 46 | 263 | 5.2 | 9.6 | 0.00 | 0.00 | 0.00 | 84 | 1020.7 |
| 20260509233056 | 45 | 236 | 4.3 | 11.3 | 0.00 | 0.00 | 0.00 | 85 | 1020.5 |
| 20260509231607 | 45 | 243 | 6.1 | 10.4 | 0.00 | 0.00 | 0.00 | 83 | 1020.4 |
| 20260509224546 | 46 | 255 | 4.3 | 10.4 | 0.00 | 0.00 | 0.00 | 78 | 1019.8 |
| 20260509223047 | 47 | 224 | 7.0 | 13.0 | 0.00 | 0.00 | 0.00 | 75 | 1019.8 |
| 20260509221543 | 47 | 221 | 7.0 | 13.9 | 0.00 | 0.00 | 0.00 | 71 | 1019.5 |
| 20260509220042 | 47 | 261 | 7.0 | 15.6 | 0.00 | 0.00 | 0.00 | 71 | 1019.4 |
| 20260509214540 | 48 | 243 | 7.8 | 13.9 | 0.00 | 0.00 | 0.00 | 72 | 1019.1 |
| 20260509213038 | 47 | 261 | 7.0 | 13.9 | 0.00 | 0.00 | 0.00 | 73 | 1019.0 |
| 20260509211537 | 49 | 263 | 7.8 | 13.9 | 0.00 | 0.00 | 0.00 | 71 | 1019.0 |
| 20260509210039 | 49 | 263 | 7.8 | 15.6 | 0.00 | 0.00 | 0.00 | 71 | 1018.8 |
| 20260509204536 | 49 | 243 | 7.0 | 16.5 | 0.00 | 0.00 | 0.00 | 72 | 1018.7 |
| 20260509203039 | 50 | 244 | 5.2 | 15.6 | 0.00 | 0.00 | 0.00 | 71 | 1018.4 |
| 20260509201532 | 50 | 213 | 4.3 | 12.2 | 0.00 | 0.00 | 0.00 | 70 | 1018.2 |
| 20260509200030 | 50 | 244 | 5.2 | 14.8 | 0.00 | 0.00 | 0.00 | 69 | 1018.2 |
| 20260509194530 | 51 | 240 | 7.8 | 13.9 | 0.00 | 0.00 | 0.00 | 68 | 1018.0 |
| 20260509193028 | 50 | 264 | 8.7 | 14.8 | 0.00 | 0.00 | 0.00 | 69 | 1017.9 |
| 20260509191528 | 51 | 264 | 8.7 | 13.9 | 0.00 | 0.00 | 0.00 | 68 | 1017.7 |
| 20260509190032 | 51 | 255 | 6.1 | 14.8 | 0.00 | 0.00 | 0.00 | 69 | 1017.9 |
| 20260509184538 | 52 | 236 | 9.6 | 15.6 | 0.00 | 0.00 | 0.00 | 65 | 1017.8 |
| 20260509183032 | 52 | 203 | 8.7 | 14.8 | 0.00 | 0.00 | 0.00 | 65 | 1017.8 |
| 20260509181525 | 52 | 240 | 9.6 | 16.5 | 0.00 | 0.00 | 0.00 | 66 | 1017.7 |
| 20260509180024 | 50 | 217 | 8.7 | 16.5 | 0.00 | 0.00 | 0.00 | 71 | 1017.6 |
| 20260509174523 | 49 | 237 | 8.7 | 13.9 | 0.00 | 0.00 | 0.00 | 78 | 1017.6 |
| 20260509173027 | 49 | 249 | 9.6 | 15.6 | 0.00 | 0.00 | 0.00 | 79 | 1017.5 |
| 20260509171530 | 50 | 256 | 7.8 | 13.9 | 0.00 | 0.00 | 0.00 | 78 | 1017.3 |
| 20260509170019 | 51 | 251 | 7.0 | 11.3 | 0.00 | 0.00 | 0.00 | 75 | 1017.2 |
| 20260509164520 | 52 | 181 | 6.1 | 12.2 | 0.00 | 0.00 | 0.00 | 71 | 1017.1 |
| 20260509163025 | 52 | 216 | 7.8 | 14.8 | 0.00 | 0.00 | 0.00 | 65 | 1017.1 |